Theta_e
318 319 319 318 318 318 317 318 318 318 318 318 318 318 318 318 318 319 319 318 318 318 318 318 318 318 318 318 318 318 318 313 310 308 306 307 318 325 335 332 338 339 340 334 329 326 319 318 317 318 314 314 315 320 323 331 337 334 324 321 314 315 315 322 322 323 331 327 330 332 334 332 329 336 339 339 333 333 332 331 333 337 337 338 340 344 345 346
318 318 318 318 318 318 318 318 318 318 318 318 318 318 318 318 318 318 318 318 318 318 318 318 317 318 318 318 318 318 315 312 307 307 306 318 329 330 335 337 341 342 342 330 325 321 318 314 315 314 313 312 324 321 327 323 336 327 320 317 312 316 320 329 327 330 329 329 332 332 337 335 333 336 337 329 327 328 327 329 332 332 335 339 342 343 344 346
318 318 318 318 318 318 318 318 318 318 318 318 317 317 318 318 318 318 318 318 318 318 318 317 317 318 318 318 318 319 314 309 309 303 305 328 332 334 334 339 345 342 330 326 325 319 316 316 315 314 314 315 320 318 325 322 330 329 321 313 315 323 327 332 330 331 335 334 331 333 337 338 337 338 340 328 326 328 325 326 329 330 331 335 339 341 343 344
318 319 318 318 318 318 318 318 318 318 318 317 317 317 318 318 318 317 317 317 318 317 317 317 318 318 318 318 319 315 311 308 298 301 312 336 339 337 338 340 348 342 316 320 317 314 314 315 315 316 316 317 319 323 321 325 325 327 323 317 318 327 329 332 333 334 335 336 334 335 338 335 338 339 338 328 324 324 327 330 329 329 332 335 338 340 342 343
318 318 317 318 318 318 318 318 318 318 317 318 318 317 318 317 317 317 317 317 317 318 317 317 318 318 318 319 319 315 309 292 296 311 319 349 345 337 342 343 346 325 314 314 316 313 314 313 314 318 318 314 320 321 320 324 332 327 324 327 327 330 332 333 334 336 335 339 336 336 332 332 341 338 332 329 322 322 327 331 333 334 336 337 338 340 342 342
318 317 317 317 318 317 318 318 318 317 317 317 317 317 317 317 317 317 317 317 317 317 317 317 318 318 318 318 314 313 300 288 303 305 354 355 346 338 344 347 347 316 313 314 313 311 313 313 316 314 314 316 316 316 318 324 331 318 317 324 328 331 332 335 335 335 337 335 333 333 336 337 334 332 333 332 328 332 336 335 336 337 338 339 341 341 340 340
317 317 317 317 317 317 317 317 317 317 317 317 317 317 317 317 317 316 317 317 316 316 317 318 318 318 317 318 310 308 295 297 305 307 346 358 345 339 345 348 338 311 311 309 310 312 310 312 315 314 313 314 315 318 321 316 323 322 314 325 328 333 333 337 335 337 337 335 333 339 340 336 331 326 337 335 340 339 337 338 338 339 340 341 339 340 340 340
317 317 317 317 318 317 317 317 317 317 317 317 317 317 317 317 316 316 316 317 317 317 317 318 318 318 318 311 308 299 297 296 303 306 353 351 339 338 343 326 315 309 309 308 310 311 310 310 312 314 311 315 312 316 316 317 314 316 315 317 330 336 336 338 337 336 337 336 338 338 334 333 336 332 336 335 340 337 337 339 339 339 339 339 339 339 340 340
317 317 317 317 317 317 317 317 317 317 317 317 317 317 317 316 316 316 316 317 317 317 318 318 318 317 318 312 300 292 290 298 309 331 342 333 333 334 330 322 313 309 306 305 309 311 312 309 311 318 312 312 314 312 313 308 305 310 314 326 331 335 337 338 337 337 336 335 337 333 332 337 337 339 335 338 340 338 338 338 338 338 337 337 338 339 339 339
317 317 317 317 317 317 317 317 317 317 317 317 317 316 316 316 315 316 316 317 317 317 318 319 318 318 315 309 294 288 295 305 334 336 331 330 330 327 322 320 312 307 305 303 305 310 311 310 313 316 315 315 315 312 309 310 307 308 309 327 333 335 337 338 335 335 335 334 335 331 331 333 338 337 324 339 341 337 337 336 337 337 336 337 338 339 340 339
317 317 317 317 317 317 317 317 317 317 317 317 316 316 315 315 315 316 316 317 317 318 319 320 319 317 309 308 287 287 298 326 327 333 330 329 325 319 318 316 311 307 306 302 304 310 312 313 315 317 316 311 310 307 309 307 308 304 316 332 334 335 336 336 336 333 334 331 335 333 330 334 335 335 329 337 339 337 334 335 335 336 336 337 338 338 339 339
317 317 317 317 316 317 317 317 317 317 316 316 315 315 315 315 315 316 316 317 317 319 320 320 320 316 310 305 294 290 309 325 326 330 331 327 320 317 316 318 311 308 306 303 302 305 310 313 316 316 308 317 309 310 303 305 305 304 334 328 330 330 327 332 332 333 334 330 335 334 328 326 328 327 336 340 338 336 334 334 334 335 336 337 337 338 338 338
317 317 317 317 317 317 317 317 317 317 316 315 314 314 314 315 315 315 316 316 318 320 321 321 318 314 306 291 298 306 308 309 310 326 327 319 315 313 313 315 309 306 306 305 303 304 307 316 315 312 315 315 311 307 307 306 303 329 332 330 324 324 322 329 335 334 330 331 334 332 313 318 325 331 336 341 336 335 333 333 334 334 335 336 336 337 337 338
317 316 316 316 316 316 317 317 316 316 315 314 314 314 314 314 314 315 316 317 319 321 322 322 315 311 301 291 296 305 309 313 311 319 323 324 315 314 311 311 309 306 306 304 306 305 307 309 313 314 318 313 310 315 311 301 311 318 328 327 321 320 318 330 330 331 329 334 333 331 311 315 325 330 336 338 336 333 331 332 333 333 334 335 335 336 336 337
316 316 316 316 316 316 316 316 315 314 315 314 314 313 313 312 314 316 318 318 320 321 321 321 312 308 301 300 306 310 327 321 312 309 323 318 312 309 311 308 309 307 306 306 306 312 308 311 311 311 307 316 315 311 303 295 300 323 320 313 317 316 318 323 330 329 324 329 334 327 310 316 324 329 335 337 337 333 330 331 332 332 333 334 334 335 335 336
316 316 316 316 316 316 316 315 315 314 314 314 312 312 313 314 316 318 319 320 321 322 319 310 310 309 299 296 304 323 319 316 315 316 320 320 314 309 310 306 306 307 308 307 309 312 310 313 309 308 310 308 303 293 291 302 307 305 310 309 315 313 319 321 325 330 330 328 330 324 313 318 324 331 334 336 335 333 331 331 331 331 332 333 334 334 335 335
316 316 316 316 316 316 316 315 314 314 314 312 312 312 313 315 318 321 321 322 321 320 314 308 310 312 292 300 311 309 309 312 319 314 317 320 315 308 308 305 303 302 305 305 306 307 308 309 308 311 305 305 296 294 293 289 296 310 301 309 316 315 318 317 326 327 329 327 322 327 320 320 325 330 332 334 335 332 329 330 330 331 332 333 334 334 334 334
316 316 316 316 316 316 315 315 315 314 313 311 311 311 310 316 319 321 322 320 319 316 314 315 311 304 299 305 301 305 311 311 313 312 315 317 310 309 306 303 301 301 302 302 309 303 307 304 305 298 296 298 296 295 292 287 302 307 302 308 311 315 321 319 319 323 325 327 323 323 322 324 326 329 330 332 335 331 329 329 330 330 331 332 333 333 333 333
316 316 316 316 315 315 315 315 314 313 312 311 313 316 315 317 315 313 312 314 304 300 294 301 301 294 290 299 303 307 309 313 315 312 310 314 311 306 310 303 302 301 299 299 301 302 304 303 301 299 295 295 294 296 294 293 299 311 304 310 311 311 314 314 323 329 325 322 322 322 318 323 326 327 330 331 334 331 331 332 331 330 331 331 332 333 332 332
316 316 316 315 315 315 315 315 314 312 311 306 306 313 311 300 297 302 310 310 304 304 303 302 305 303 303 304 304 308 312 314 311 310 310 315 309 305 305 305 303 302 299 297 300 301 304 298 295 294 296 297 297 297 297 295 300 299 299 308 311 314 315 320 322 329 331 325 322 323 322 324 326 328 328 330 332 332 331 330 330 330 329 330 330 331 331 331
316 316 316 315 315 315 315 314 313 312 309 306 306 304 298 297 295 293 298 303 308 309 305 304 305 304 304 305 307 309 305 306 308 308 310 318 309 306 303 304 299 297 298 300 302 306 304 297 297 296 297 297 298 296 296 296 296 294 292 294 296 311 310 318 320 329 331 324 321 323 322 322 325 328 330 331 331 329 329 330 331 331 330 329 329 330 330 331
316 315 315 314 314 314 314 313 312 310 308 305 308 303 302 303 307 306 302 297 301 308 308 307 308 305 309 309 309 312 310 305 306 307 310 312 306 303 302 300 296 295 300 300 300 298 297 295 298 298 299 298 296 296 296 296 296 294 293 293 293 297 311 317 324 327 325 321 315 321 320 321 325 328 330 329 329 330 333 332 332 332 330 329 329 330 329 329
316 315 315 315 314 313 312 311 310 308 305 307 305 305 306 310 310 310 308 299 297 302 305 306 305 305 306 310 311 311 305 303 301 305 308 310 305 304 302 298 297 296 298 299 296 293 294 296 298 300 298 297 297 295 294 294 293 291 291 290 291 292 306 304 320 321 321 322 315 319 320 321 326 327 328 332 330 331 332 334 334 335 333 329 329 330 327 327
316 316 315 314 314 312 312 310 305 306 304 306 306 306 311 310 310 308 303 297 296 301 302 305 306 306 305 306 309 308 305 304 303 305 320 309 304 305 302 297 296 297 296 296 296 295 294 298 300 299 298 299 297 295 295 293 293 292 292 290 291 293 309 311 316 318 322 324 324 321 319 319 322 320 320 327 332 330 331 333 332 334 335 338 335 332 329 326
315 315 315 314 313 312 310 308 305 308 310 308 307 311 311 312 311 308 303 296 294 296 305 305 309 307 308 309 311 306 304 304 304 306 316 309 304 303 301 302 298 295 296 296 296 295 296 299 299 298 297 297 297 296 295 294 291 291 292 295 293 304 313 314 316 316 313 315 322 319 306 310 320 319 318 324 326 326 330 329 329 331 333 335 333 330 330 327
315 315 315 314 314 311 309 306 309 308 307 307 311 311 311 313 308 307 298 290 287 293 297 296 303 300 307 301 306 303 305 302 305 307 311 310 317 305 304 300 300 296 296 296 295 294 297 301 300 298 297 296 296 295 295 296 290 291 293 295 298 314 314 315 315 314 304 304 315 321 305 301 315 316 318 323 325 325 329 328 329 330 331 334 334 332 330 326
315 315 314 313 312 309 303 303 306 307 302 305 310 312 312 313 312 307 300 284 281 292 292 297 299 298 303 301 303 302 290 295 303 310 309 317 309 312 301 297 300 301 301 299 298 295 299 298 298 297 297 296 295 293 295 296 292 290 293 296 306 314 313 315 316 312 307 318 319 317 311 302 304 314 322 325 324 323 325 326 328 329 331 334 334 334 332 328
315 314 312 311 310 308 305 303 306 305 305 307 312 312 312 313 309 306 290 278 280 295 293 293 298 303 304 301 303 299 298 300 298 303 309 312 310 305 300 298 297 297 301 298 291 296 298 297 297 296 296 294 294 295 296 297 294 292 295 304 310 313 313 316 314 309 312 311 306 313 315 303 302 308 322 324 319 321 323 325 326 329 332 333 334 335 334 331
314 313 312 311 309 307 308 306 305 304 306 311 312 311 314 310 305 298 285 279 292 294 304 295 306 301 299 300 299 297 299 300 296 299 306 309 308 305 300 299 297 297 300 298 293 293 299 299 296 298 295 293 295 296 297 298 296 297 296 300 302 312 315 315 310 309 308 303 302 309 313 300 298 308 318 323 321 320 322 325 326 328 331 332 333 334 335 336
314 313 312 310 306 306 308 308 305 308 312 311 311 311 312 304 297 290 282 278 294 287 297 297 297 294 296 294 295 294 298 298 299 305 305 304 304 305 305 304 301 300 299 297 298 297 300 309 309 298 295 297 297 299 298 299 299 298 298 298 308 309 309 307 306 305 303 298 301 311 313 306 295 307 316 316 318 322 323 325 327 329 330 333 334 335 334 336
313 311 310 309 304 307 308 301 304 310 311 311 311 308 303 298 289 279 279 285 294 292 294 294 293 296 295 293 291 294 296 296 298 303 300 304 302 301 301 301 300 293 292 290 294 295 297 299 300 301 305 301 300 298 299 300 301 299 295 295 303 303 304 300 299 304 298 294 300 313 312 310 299 298 316 323 324 326 325 324 326 328 329 330 333 335 335 336
310 309 310 306 307 310 303 304 304 311 312 312 310 300 298 292 285 281 284 296 287 290 291 290 293 293 292 293 291 292 293 294 297 300 297 297 296 298 294 291 293 290 289 288 293 292 292 295 295 298 313 302 296 296 293 297 297 296 295 296 293 288 296 294 298 297 293 295 300 309 311 305 305 303 311 317 320 323 327 327 328 329 330 330 332 334 336 335
308 308 307 309 311 305 308 309 311 311 312 313 302 296 288 283 279 284 285 288 288 293 291 295 293 291 292 291 289 291 295 293 295 295 296 294 294 297 298 298 296 295 289 291 290 287 290 293 296 297 300 304 298 293 290 291 292 293 292 290 288 288 290 289 290 291 292 299 303 309 312 305 306 309 314 316 319 322 327 329 331 332 332 331 332 333 334 335
308 307 304 309 309 310 311 314 313 312 311 310 297 294 289 284 284 309 292 285 290 294 295 293 292 290 290 289 292 293 290 295 295 294 293 292 290 294 298 298 296 294 293 291 291 285 285 289 293 296 294 299 299 296 294 289 290 293 293 295 290 290 290 287 287 289 294 294 300 309 305 297 300 304 318 320 322 323 326 331 332 333 334 333 333 334 333 334
307 306 304 307 309 310 311 311 311 313 306 302 295 288 284 281 286 285 286 287 289 293 294 293 291 289 289 291 292 295 295 292 295 294 292 289 289 291 298 294 296 295 294 290 291 291 290 286 293 298 302 299 297 299 298 295 293 293 295 296 291 293 295 291 294 296 294 295 297 302 299 304 306 317 322 325 328 328 329 330 332 332 334 334 332 332 331 332
306 306 307 306 310 312 312 313 311 310 303 299 291 288 285 290 288 288 290 293 294 293 292 290 292 288 287 287 290 292 296 292 293 290 290 290 292 291 295 296 295 296 292 290 290 289 290 290 295 296 299 299 299 301 299 299 289 293 295 291 293 297 298 294 299 298 300 296 295 299 301 306 310 315 320 323 325 326 328 330 331 331 333 332 331 332 332 331
308 310 306 308 309 315 313 314 314 305 302 296 291 288 290 295 294 293 307 295 295 295 288 286 288 288 286 287 287 290 293 293 293 288 288 293 289 293 293 293 297 296 296 293 291 292 288 288 292 296 297 300 298 300 301 302 297 295 291 294 300 302 299 294 290 291 293 290 294 302 300 301 302 303 318 321 322 324 325 326 329 330 331 331 331 332 333 332
306 308 314 316 316 314 314 314 309 303 298 293 290 306 297 294 297 295 296 294 296 293 288 286 290 292 289 287 288 290 293 288 291 290 290 292 289 296 294 294 297 297 296 296 293 295 292 287 291 296 297 297 298 301 299 301 301 297 296 300 298 291 293 292 295 288 288 289 293 296 300 300 300 302 313 316 319 321 324 326 327 327 329 329 330 333 335 337
306 301 302 309 311 315 314 312 306 302 294 290 290 292 300 298 298 298 297 296 295 291 290 291 289 292 290 287 290 290 291 288 289 290 286 290 287 295 294 298 295 296 296 296 293 295 296 288 289 295 296 297 294 295 292 292 299 299 300 299 301 296 291 291 291 292 296 293 293 292 298 295 303 306 315 316 319 320 323 326 327 327 327 328 329 332 334 335
302 299 300 310 310 314 317 310 302 296 293 291 290 293 295 296 297 297 295 296 296 292 292 293 293 290 292 292 291 290 291 290 287 289 288 290 290 296 294 297 295 296 295 298 297 298 293 294 288 292 295 295 292 292 289 290 293 295 294 295 297 295 299 297 295 296 295 294 291 291 291 297 301 310 316 317 319 321 321 322 325 328 328 329 332 333 335 336
304 298 299 308 313 315 309 301 295 293 292 291 296 296 296 297 296 296 296 297 297 299 294 294 291 291 292 289 291 292 290 289 289 287 288 290 290 287 294 295 297 295 294 293 294 295 293 290 290 290 290 288 289 293 295 294 293 292 289 292 292 292 293 290 289 296 299 295 291 292 289 294 302 320 317 318 321 322 323 323 323 324 325 325 328 331 333 333
298 296 300 311 311 309 301 295 294 294 292 293 294 296 296 315 293 294 295 295 297 296 298 295 294 293 292 294 293 291 289 290 290 287 290 288 292 290 296 295 295 296 294 291 293 295 296 293 294 290 292 293 296 299 298 298 295 294 293 293 293 293 291 288 285 291 299 300 302 297 292 295 308 317 317 318 320 322 323 324 322 322 323 325 327 329 331 331
298 300 307 311 312 307 294 288 299 299 296 293 296 296 295 294 293 294 294 295 295 295 294 294 297 294 296 295 293 293 291 290 293 290 291 291 292 295 295 295 299 301 296 295 296 297 312 294 290 293 293 295 296 296 298 298 295 294 293 293 292 292 293 290 288 294 297 298 296 292 293 298 311 317 318 318 320 321 321 320 320 320 322 324 325 326 327 329
299 300 306 312 308 303 297 293 291 290 293 297 295 295 295 295 294 293 293 294 294 294 294 294 295 298 297 296 296 295 295 288 293 292 291 294 293 297 295 297 302 303 302 297 296 300 294 295 292 288 288 288 289 294 295 297 296 293 293 293 295 294 294 293 297 298 298 298 296 294 289 296 308 317 318 320 320 319 319 320 320 319 320 322 323 324 324 326
302 303 304 308 309 302 298 292 292 289 295 292 291 291 290 293 294 295 295 294 295 296 295 294 296 296 296 297 297 297 297 293 291 294 293 294 293 296 297 296 301 301 309 312 313 308 297 296 295 287 284 283 283 283 285 288 290 293 294 292 295 298 300 299 298 294 289 297 297 293 292 301 312 315 316 318 317 316 318 318 319 320 320 320 322 323 323 324
299 295 298 299 302 294 296 296 291 291 291 293 290 291 291 291 294 295 294 295 295 296 297 298 297 297 295 295 295 295 296 297 293 293 293 293 294 294 296 296 299 302 316 314 310 306 297 300 297 294 291 289 291 290 293 300 290 289 291 293 296 296 299 297 294 293 292 295 297 295 300 305 309 312 313 315 314 313 314 316 317 318 319 320 321 322 322 323
300 294 296 294 302 293 293 290 294 292 292 292 288 291 292 292 292 295 296 296 296 296 297 297 296 295 295 294 294 294 295 295 294 292 293 295 295 296 296 297 297 306 318 308 309 301 297 294 297 296 295 296 296 296 295 299 293 291 293 295 300 302 300 295 294 292 296 300 292 296 304 306 308 311 313 313 312 313 315 315 317 317 318 319 320 322 323 322
293 298 301 305 291 293 291 292 299 295 296 294 291 293 292 291 291 291 294 297 296 298 297 296 294 293 295 296 293 291 292 291 291 292 293 294 293 295 295 296 296 301 304 296 302 298 294 292 299 297 294 296 297 295 295 294 294 296 295 295 296 302 300 299 299 301 299 295 293 298 305 306 309 312 313 312 312 313 314 316 318 319 319 319 319 318 318 319
301 300 302 308 297 294 294 301 303 298 297 295 296 293 290 289 291 293 292 292 294 296 294 289 291 292 292 295 292 290 290 285 289 292 292 292 293 292 291 292 296 295 296 294 297 301 293 292 299 299 295 295 297 297 296 294 295 296 297 296 298 301 304 304 304 304 302 298 298 305 307 306 309 310 312 312 314 315 316 318 319 318 318 319 318 318 318 318
297 301 301 304 303 301 302 299 296 293 290 297 289 292 291 291 292 291 293 293 292 295 297 292 292 292 292 292 291 289 293 291 292 291 293 292 289 292 291 291 290 293 294 293 295 298 293 293 303 296 296 296 296 299 299 295 295 296 297 298 300 300 304 305 306 306 307 305 306 306 305 305 310 313 312 314 315 316 317 317 316 317 317 318 318 318 318 318
306 303 305 301 297 300 303 297 292 291 289 290 286 294 297 292 293 292 292 295 296 295 296 293 293 293 292 291 291 292 293 295 294 293 294 293 290 294 291 292 294 292 291 293 293 295 295 292 294 293 291 293 295 295 296 296 297 297 297 296 299 299 301 303 300 305 301 301 303 304 303 303 309 312 313 314 314 314 313 312 312 313 314 314 314 315 316 317
305 306 307 301 297 305 298 298 290 289 289 289 292 295 296 294 294 292 292 295 296 298 295 294 294 291 289 290 291 294 295 295 296 295 293 293 295 297 297 294 294 294 291 291 292 291 291 289 288 289 290 290 297 297 295 296 295 292 294 295 299 298 303 304 305 306 305 306 304 302 302 308 310 313 311 311 312 311 311 311 311 311 312 312 313 314 315 317
Wind_Speed
12 12 12 12 12 12 12 12 12 12 12 12 12 12 12 11 11 11 11 11 12 12 12 13 13 12 12 12 13 13 11 8 7 1 1 13 7 10 10 4 8 16 9 9 10 10 4 4 4 1 3 4 2 2 2 4 1 1 1 1 2 3 2 5 6 7 3 9 7 7 4 7 7 1 3 6 6 4 4 6 4 8 8 10 11 13 13 13
13 13 13 13 13 13 13 13 12 12 12 12 12 12 12 12 12 12 11 11 11 11 13 13 14 12 12 11 11 12 10 6 6 5 20 4 9 12 10 7 5 16 12 10 13 9 11 5 5 6 6 3 0 1 5 2 4 2 1 1 3 2 3 4 5 6 9 5 8 8 3 4 3 5 3 6 5 5 7 5 9 10 11 13 13 14 13 13
13 13 14 14 14 14 14 13 13 13 12 12 13 12 12 13 12 12 11 11 11 11 12 13 13 13 11 10 10 8 6 5 3 8 15 16 19 12 11 9 8 16 11 9 6 7 10 12 9 7 4 3 2 3 4 1 6 3 1 1 4 3 1 2 9 8 2 12 10 9 5 3 4 1 1 6 8 6 9 9 8 12 14 14 14 13 13 13
13 13 14 14 14 15 14 14 14 13 13 13 13 12 13 13 12 12 12 11 11 11 12 12 12 12 12 10 9 4 2 2 2 3 4 6 15 15 12 11 10 12 5 6 7 5 5 6 5 4 3 2 1 1 3 2 3 2 2 3 2 2 2 0 7 6 9 9 11 7 5 7 1 1 1 10 12 3 4 8 13 14 16 16 15 14 12 13
14 14 14 14 14 15 15 15 15 14 14 13 12 13 13 13 12 12 12 12 11 11 11 11 11 12 11 10 6 3 2 2 1 2 3 3 10 17 14 11 14 8 5 7 7 6 7 8 5 2 2 3 0 1 3 3 4 3 7 5 2 2 2 4 5 10 11 6 6 6 11 7 2 2 4 10 12 9 9 11 11 15 17 19 17 14 12 12
14 14 14 15 15 15 15 15 15 15 14 14 13 13 13 12 12 12 12 12 12 12 11 10 10 10 11 10 3 3 1 1 2 3 3 2 10 16 15 12 14 7 8 9 6 4 9 4 6 3 2 2 3 4 2 5 5 4 3 5 6 3 4 5 8 10 11 8 8 8 4 5 2 4 4 1 2 2 4 5 8 11 13 15 14 14 13 12
14 14 15 15 15 16 15 15 15 15 14 14 13 13 13 13 12 12 12 12 12 11 10 9 9 9 9 8 0 1 2 7 3 7 4 7 13 15 16 13 13 7 6 7 6 6 3 8 5 4 4 1 2 3 6 1 4 5 4 0 3 4 8 10 9 12 8 11 8 4 6 4 7 10 1 3 1 4 6 8 9 11 11 13 14 13 14 12
14 15 15 15 15 16 16 16 16 15 14 14 13 13 13 13 13 13 12 12 12 11 9 9 8 8 6 2 1 1 1 6 10 5 3 13 13 15 14 8 10 7 6 8 10 8 6 10 10 4 2 7 2 6 2 3 3 6 6 3 1 4 7 10 10 10 10 6 7 8 7 4 2 4 2 3 3 7 8 10 11 11 12 10 11 12 13 12
15 15 16 16 16 16 16 16 16 15 15 14 14 13 13 12 13 13 13 12 11 10 9 7 6 5 2 2 1 3 5 6 4 4 6 12 11 11 13 6 6 10 5 4 5 6 7 5 4 6 4 4 2 1 2 1 4 5 8 2 4 6 8 9 9 9 9 6 7 10 7 5 6 5 2 1 3 7 11 11 12 11 12 11 12 11 11 11
15 15 16 16 16 16 16 16 16 15 15 14 13 12 12 13 13 13 12 11 11 9 8 6 4 3 1 1 2 1 3 2 4 4 5 11 11 12 6 7 8 8 8 4 4 8 6 4 5 4 4 2 0 3 1 4 3 3 3 6 9 9 10 8 8 7 7 6 7 10 6 6 4 1 2 1 3 10 12 12 11 12 12 11 11 10 9 10
15 15 16 15 16 16 16 16 15 15 14 13 13 12 12 13 13 12 12 11 10 8 7 5 3 1 1 1 2 5 4 4 3 4 6 8 13 12 10 10 7 8 8 4 5 5 2 5 1 3 2 1 1 4 2 4 1 3 3 8 9 8 9 7 5 5 6 4 0 11 7 4 2 2 0 2 5 12 14 12 12 10 11 10 10 10 8 8
16 16 16 16 16 16 16 16 15 14 14 13 13 12 12 12 12 12 11 10 10 9 4 4 4 2 1 1 3 7 4 4 2 3 6 4 5 4 6 5 9 11 10 7 4 4 2 2 1 2 2 0 1 4 2 4 2 3 14 9 9 12 5 2 9 5 3 3 4 9 9 1 0 1 2 4 7 10 14 12 11 11 9 9 9 9 7 7
16 16 16 16 17 17 17 16 15 15 14 13 13 12 11 11 11 11 10 9 8 8 4 3 4 0 0 1 9 8 5 2 2 5 4 2 3 5 5 4 3 2 2 8 6 4 4 1 2 1 1 1 2 1 2 3 3 5 2 11 10 7 2 6 2 3 5 2 7 6 5 5 5 2 1 3 10 10 12 12 11 9 9 8 8 8 8 6
17 16 16 16 17 17 17 16 16 15 15 14 12 12 12 11 10 10 9 8 9 8 6 6 4 1 0 4 6 4 6 0 1 3 4 2 5 1 4 4 3 2 2 3 2 5 4 0 3 0 0 1 3 3 4 4 4 4 4 5 6 8 5 6 5 4 5 2 7 5 2 2 3 3 2 0 8 14 14 12 11 10 9 8 8 8 8 8
16 16 16 17 17 17 16 16 15 15 14 14 11 13 12 11 10 8 7 7 7 5 6 8 3 1 0 7 6 9 8 1 2 4 7 6 4 2 4 4 4 2 2 1 1 1 4 3 1 2 2 1 1 2 3 2 3 4 6 2 0 4 5 10 5 8 7 2 3 3 2 5 3 5 4 1 5 12 14 12 12 10 10 8 8 9 9 8
14 15 16 17 16 16 16 14 14 15 15 14 13 12 11 10 9 6 2 2 2 8 6 2 1 1 1 6 1 2 1 1 3 5 8 9 6 3 5 5 4 3 1 2 2 0 1 3 2 4 2 1 2 2 3 3 1 3 3 1 5 4 8 8 8 8 2 9 4 1 3 1 4 5 5 2 5 11 13 12 11 11 10 10 9 9 8 7
12 13 16 17 17 16 16 13 15 15 14 15 13 10 8 8 6 2 5 3 2 3 0 1 1 2 1 3 3 2 2 2 2 2 4 5 7 7 8 5 3 3 1 1 3 1 0 3 1 0 1 2 2 3 2 1 1 4 2 2 2 5 7 3 11 4 6 9 6 5 3 4 0 8 7 4 7 11 12 13 11 11 10 10 9 9 9 9
16 13 14 17 17 17 15 13 13 13 13 15 13 7 4 1 2 4 3 4 2 1 3 2 1 1 6 4 1 1 1 4 3 2 2 1 5 6 6 2 3 6 4 1 1 2 0 1 1 3 1 1 2 2 5 6 7 6 2 2 1 1 6 7 9 11 13 9 9 8 2 3 6 8 8 8 6 11 13 14 14 12 11 10 10 10 10 9
17 16 14 15 17 16 15 13 12 11 13 14 12 1 5 2 1 0 2 1 1 1 1 0 1 2 3 2 4 7 2 6 1 5 3 7 1 3 4 3 7 9 3 3 0 3 0 1 3 0 5 2 5 6 7 3 7 8 6 4 3 4 5 3 1 13 19 13 10 10 5 6 9 7 7 6 7 10 10 7 7 10 10 10 10 10 10 10
18 15 14 13 13 16 15 12 10 9 8 6 4 4 2 1 1 1 0 0 3 5 5 4 3 4 6 7 4 4 5 2 0 2 4 1 9 5 2 2 2 3 6 6 3 3 4 5 5 6 6 5 4 7 6 3 5 4 2 2 3 5 0 2 2 10 9 8 5 7 4 6 9 9 7 8 7 5 6 10 9 9 11 11 10 11 11 11
15 15 15 13 12 12 14 11 9 6 5 2 1 0 2 0 3 4 3 7 6 6 6 5 8 6 6 2 2 2 4 2 1 0 2 3 5 10 1 1 1 2 3 5 6 0 4 5 8 5 3 5 6 2 4 3 2 3 4 2 0 3 5 1 2 10 10 9 4 4 6 5 7 9 8 5 8 11 12 10 10 10 11 10 11 12 12 11
16 16 15 14 12 11 11 9 7 5 3 1 1 1 1 2 1 3 2 6 4 8 8 7 1 5 4 7 4 2 2 2 2 1 1 4 4 5 1 3 2 5 1 3 5 3 3 8 4 5 5 2 3 3 3 3 1 2 1 1 2 2 1 1 3 6 5 5 4 2 5 6 8 8 8 11 11 11 11 10 9 9 10 10 10 11 9 8
18 17 15 15 13 12 11 9 6 3 4 2 1 0 1 2 1 1 0 1 6 1 2 1 3 5 6 3 2 7 3 2 2 1 3 4 1 3 5 3 3 3 2 3 7 4 2 6 8 5 5 5 1 3 4 4 3 5 3 3 2 1 3 1 2 8 4 4 7 4 4 2 3 3 2 8 8 3 3 4 4 4 4 7 11 10 9 11
17 18 16 15 14 13 10 10 3 3 3 2 1 3 0 0 2 1 3 2 3 6 2 5 3 2 5 0 3 5 4 1 3 1 2 5 7 2 4 4 2 2 3 3 5 6 6 2 0 5 6 6 4 4 4 3 1 2 3 2 1 1 1 3 5 4 4 5 8 9 4 2 5 4 5 7 8 8 8 4 5 5 4 3 2 5 7 11
17 18 17 14 15 14 13 6 2 2 2 1 4 4 3 3 3 6 1 4 1 4 2 1 1 3 3 1 2 1 1 1 3 2 2 7 3 2 2 2 3 1 2 3 5 1 5 6 3 4 2 3 3 2 3 6 2 0 4 6 5 4 4 3 8 10 2 2 3 8 1 3 6 5 9 6 4 9 9 10 11 11 9 5 6 9 6 6
16 16 17 15 15 16 11 1 1 1 3 3 1 0 2 2 1 4 4 3 2 3 5 1 0 1 1 1 1 1 1 0 2 2 2 5 5 4 1 1 2 4 3 4 4 3 5 1 4 3 2 2 3 3 3 5 5 2 5 7 7 7 7 9 8 5 3 4 6 3 5 2 2 7 9 8 9 8 10 12 12 10 9 8 6 7 9 8
15 15 15 14 14 14 1 2 1 2 3 2 1 2 3 4 1 3 1 5 3 1 0 3 2 1 0 1 1 1 2 1 3 1 3 2 2 1 5 1 1 2 2 2 2 3 1 1 4 3 3 2 1 3 3 7 6 2 2 7 8 8 9 11 11 4 3 3 3 1 1 2 1 7 9 9 10 10 9 12 12 12 12 12 8 7 8 8
16 15 13 11 9 6 1 2 5 1 4 1 2 4 4 2 2 2 4 1 1 2 2 2 1 1 0 2 3 0 2 1 1 1 1 0 2 3 4 3 5 4 2 3 5 5 3 1 2 1 1 3 5 3 4 7 5 3 2 9 9 11 8 9 7 5 5 8 0 3 2 1 3 4 6 11 8 11 13 13 14 15 16 14 10 7 7 8
14 13 11 9 8 3 2 0 0 3 2 2 4 3 3 2 4 5 3 2 0 0 3 0 2 0 1 1 0 1 1 0 1 1 2 3 3 3 1 4 4 4 0 5 6 2 2 3 5 6 5 6 5 5 8 9 4 6 4 3 2 3 4 6 5 7 2 2 4 7 6 2 5 1 7 8 8 13 15 13 13 14 15 15 11 7 6 5
15 15 10 7 4 1 0 0 5 6 2 4 4 4 1 3 2 2 3 0 1 1 1 1 1 2 2 1 0 2 1 2 1 1 2 2 2 3 1 3 3 2 1 3 1 7 4 3 5 4 4 6 6 6 9 10 8 1 3 4 6 6 5 3 5 3 4 2 5 11 10 3 2 5 9 14 10 9 7 7 8 11 13 13 11 8 6 5
17 12 8 3 1 1 2 4 8 3 3 2 4 2 3 6 2 3 2 2 1 4 2 1 2 3 1 1 0 1 1 0 1 2 1 1 2 3 1 1 4 4 2 3 1 4 2 1 1 2 7 3 4 1 1 7 7 6 0 4 6 5 4 6 4 3 2 5 3 9 12 4 5 3 4 8 0 6 10 12 13 14 15 14 12 8 6 5
16 12 7 5 4 1 3 5 0 0 2 2 1 4 3 2 6 5 0 3 2 4 1 3 1 0 1 1 3 0 2 1 1 1 4 1 4 3 2 3 2 1 2 0 4 3 3 5 3 4 3 11 3 3 2 0 0 4 4 4 7 0 2 2 2 1 3 5 2 3 10 4 8 4 2 2 8 4 7 10 13 14 15 14 14 11 8 6
20 14 8 8 5 2 7 5 4 4 4 1 3 3 3 6 2 2 2 3 1 1 3 1 1 2 0 2 1 2 1 1 1 2 3 3 5 2 2 1 3 2 2 1 1 2 7 2 1 4 1 3 7 7 2 1 2 6 6 5 4 3 2 3 1 0 3 3 1 7 9 4 1 2 2 6 8 6 6 8 12 14 14 15 14 12 10 8
21 15 3 6 10 8 4 1 1 6 5 3 3 3 8 7 1 3 2 2 3 1 3 2 2 2 4 2 2 0 3 3 1 0 3 1 5 1 0 1 2 2 1 2 1 2 1 1 5 3 2 3 6 7 10 5 6 8 4 9 7 7 5 3 3 4 6 5 1 4 5 4 3 1 6 8 9 7 7 8 9 12 13 13 12 11 11 11
24 10 3 0 3 9 13 9 4 1 1 4 9 6 6 1 2 1 3 2 2 2 0 3 1 3 4 3 4 3 1 2 3 4 6 4 1 0 0 3 2 3 1 1 2 2 3 5 6 5 0 5 7 4 6 5 4 2 4 5 5 7 6 5 8 7 4 3 3 1 3 1 1 2 4 5 4 1 5 6 8 10 9 10 10 12 12 13
11 1 2 2 2 3 6 5 4 2 2 8 7 7 3 1 2 1 1 2 1 1 4 3 6 7 2 3 2 4 6 4 2 5 3 3 1 1 1 2 1 2 1 2 2 1 2 1 2 6 1 5 6 5 4 6 4 3 5 5 8 4 7 5 2 3 4 4 1 0 3 2 5 2 6 7 7 7 4 5 8 9 10 10 10 11 12 14
4 4 0 2 2 2 4 5 5 3 7 7 7 3 1 1 4 2 3 1 1 1 2 4 4 2 2 3 2 6 4 4 3 3 2 1 3 4 4 4 2 1 2 3 2 2 1 5 4 3 1 1 2 5 4 1 5 5 3 8 1 2 4 4 2 2 2 3 2 1 2 3 2 3 3 5 6 6 6 4 5 5 7 8 5 6 9 13
5 2 1 3 3 1 3 6 3 7 6 6 3 1 1 2 1 3 1 1 1 3 4 3 0 3 0 0 4 4 6 5 5 3 2 3 1 2 3 3 3 1 2 1 2 1 2 2 2 1 2 6 3 3 2 1 0 8 8 6 6 1 3 2 6 1 2 1 2 2 2 2 5 3 1 2 2 4 5 6 6 8 7 7 7 7 6 5
1 1 1 2 1 5 2 3 6 7 5 5 2 3 1 3 2 0 3 2 1 1 3 0 1 1 1 1 1 1 3 3 1 2 3 2 2 1 2 0 2 5 2 4 1 1 1 2 4 2 0 3 3 3 5 1 1 1 2 4 1 3 3 4 3 4 6 4 2 3 1 3 4 5 5 3 2 3 6 7 7 7 7 7 7 8 8 7
3 2 2 2 3 2 1 1 5 6 4 3 1 1 2 1 3 3 3 1 1 2 0 0 0 1 2 0 0 0 3 2 2 0 3 2 1 1 4 2 2 6 4 2 2 0 1 0 0 5 3 2 1 2 4 4 3 1 2 0 0 2 2 5 2 1 5 7 5 4 1 4 3 2 4 6 4 4 5 7 7 8 8 8 9 9 9 8
0 3 1 3 4 1 2 4 5 2 1 1 1 2 1 1 3 3 6 5 1 1 2 1 1 2 0 2 3 1 2 3 3 2 1 1 1 1 2 3 3 4 2 3 6 3 1 2 0 3 5 3 3 3 2 3 3 3 5 3 4 5 4 4 2 1 2 6 5 5 5 3 3 1 3 6 6 6 6 6 7 9 9 7 8 10 10 9
2 2 1 1 4 2 2 2 1 1 2 0 2 0 2 2 2 4 3 4 4 2 2 3 0 1 1 1 0 3 2 2 2 2 1 3 1 2 4 6 4 3 2 1 3 4 2 1 1 2 2 3 2 1 2 3 2 3 5 1 3 1 5 4 4 3 3 1 4 2 3 2 2 2 2 1 4 7 5 7 7 7 7 7 7 9 9 8
3 1 4 2 4 3 3 2 1 1 1 2 2 1 1 1 1 3 3 4 3 2 2 3 1 0 0 0 0 2 2 3 2 1 0 0 2 3 6 8 5 2 3 4 1 1 2 4 4 2 5 6 5 4 3 2 2 3 4 2 2 1 2 3 1 6 7 3 2 2 1 2 2 3 3 1 3 5 6 6 7 8 7 6 6 6 6 8
1 1 4 1 2 3 2 1 2 1 3 3 1 0 2 0 3 4 3 3 2 3 1 1 3 1 1 1 2 2 0 2 2 2 2 0 2 2 5 8 7 4 4 2 0 4 2 2 1 1 1 3 6 8 7 5 5 4 1 3 1 1 3 3 5 1 5 4 5 8 5 3 2 4 4 3 6 7 7 7 6 7 6 6 6 5 5 6
0 1 1 7 5 3 0 3 2 1 1 0 1 2 4 2 1 0 0 3 2 1 1 1 0 2 2 1 3 2 3 2 2 3 1 0 0 2 6 8 6 4 1 2 3 1 5 2 2 1 3 2 1 2 3 5 5 6 1 4 4 4 8 5 3 1 3 2 3 2 2 2 3 5 7 5 6 7 7 8 8 7 7 6 6 5 5 6
2 1 4 5 6 5 3 0 3 2 2 1 3 1 1 0 1 4 2 1 2 1 3 1 2 3 3 3 5 6 6 5 4 0 2 3 3 2 1 8 7 4 7 7 4 3 2 1 4 5 5 4 1 4 4 0 3 4 10 5 6 1 2 5 5 3 4 5 4 4 5 8 9 12 11 8 6 7 8 7 8 7 7 6 5 4 4 6
1 4 1 3 6 5 1 3 2 1 0 2 2 0 3 1 2 2 4 1 4 2 2 5 2 2 1 3 1 3 3 2 5 4 3 1 3 2 5 4 7 12 13 5 9 4 3 6 2 4 4 0 2 3 4 2 1 3 8 10 8 5 1 4 5 3 6 10 2 2 5 13 12 15 13 9 7 5 5 7 7 6 6 6 5 4 5 6
2 1 1 1 2 1 3 3 6 5 2 1 1 0 1 2 4 1 4 1 0 2 1 4 8 4 1 2 3 3 4 3 3 2 3 0 2 5 4 5 6 9 7 2 5 4 3 4 1 1 8 9 7 5 5 5 0 1 4 7 11 8 3 2 0 0 3 7 7 6 11 10 8 10 11 8 9 8 7 7 7 7 6 6 5 6 5 5
2 0 1 0 0 2 2 3 3 1 1 3 1 2 1 3 3 0 1 3 4 4 2 2 4 5 4 1 4 2 1 2 3 1 0 2 2 3 4 4 2 7 6 4 5 2 3 1 0 1 7 3 8 11 8 8 5 2 8 9 9 7 7 6 4 3 2 0 2 10 9 4 4 8 9 8 7 8 7 6 6 7 7 7 6 5 5 5
2 1 0 4 2 0 2 1 0 2 4 3 2 0 1 1 1 2 2 2 1 1 2 7 1 5 6 6 4 4 0 3 2 1 1 1 1 1 0 1 2 5 5 3 1 2 3 1 5 3 4 2 1 3 9 7 6 5 7 12 13 9 5 6 4 4 8 10 9 10 9 6 3 9 10 9 9 7 8 9 8 6 7 7 7 7 6 5
1 1 1 1 1 2 1 2 2 2 2 2 3 0 2 0 1 1 1 0 0 0 1 4 4 2 3 6 6 2 3 2 2 2 2 2 2 1 2 2 1 1 5 4 4 4 5 0 3 2 5 0 4 7 7 10 10 2 11 15 15 12 8 5 4 3 1 6 6 7 7 5 6 10 11 11 10 10 10 9 7 6 6 6 7 6 6 6
1 0 1 2 0 1 2 1 1 2 2 2 2 0 1 0 1 1 3 2 2 1 3 5 4 6 2 6 3 1 2 4 4 4 3 4 1 1 2 1 1 3 1 2 1 3 1 1 2 2 5 3 3 3 9 9 10 8 9 8 8 5 0 1 3 8 5 1 7 8 6 4 10 11 13 10 10 9 9 9 8 6 5 6 6 7 6 7
Wind_Direction
342 340 338 337 334 332 331 330 329 327 325 325 324 320 320 322 319 318 319 319 321 320 320 321 321 321 320 322 324 324 330 330 317 328 259 239 179 207 172 213 178 190 201 116 115 114 106 127 145 212 111 129 226 130 193 181 178 69 254 180 293 232 180 186 176 177 108 149 153 158 194 132 126 137 113 102 81 95 83 80 74 60 70 97 116 123 133 132
341 339 338 334 332 331 329 328 327 325 324 322 322 318 319 317 316 315 316 318 320 318 319 321 320 318 321 323 325 326 335 301 287 261 237 185 213 199 196 209 157 173 154 128 154 154 134 169 164 136 130 160 277 174 146 236 151 156 198 106 247 203 243 166 156 158 144 162 138 151 176 144 121 136 174 117 134 117 94 90 99 91 94 107 117 133 136 133
339 336 334 333 330 329 327 326 326 325 324 324 319 318 316 313 313 313 315 317 315 318 320 321 319 316 320 322 320 2 343 320 272 264 268 219 217 186 192 191 178 166 169 154 164 145 159 170 155 134 155 113 201 172 175 246 154 227 110 261 251 234 290 126 141 166 156 138 144 153 162 124 145 143 186 137 135 118 132 129 121 123 131 129 135 139 139 136
335 334 332 330 328 325 324 324 323 325 322 319 317 316 314 312 311 312 312 313 313 316 320 318 316 319 317 320 327 356 25 282 289 254 269 270 200 171 175 173 177 163 96 106 130 124 112 99 133 124 117 123 257 187 160 214 163 198 138 220 242 242 102 117 133 140 130 149 145 146 124 121 110 38 142 141 117 138 159 156 150 151 143 139 144 143 142 142
335 333 330 326 324 322 322 322 322 321 320 317 316 313 311 312 310 308 309 309 312 316 319 317 317 319 319 309 353 5 3 22 265 235 269 310 171 168 155 158 170 148 129 125 102 82 111 131 148 137 104 176 288 150 230 201 207 133 212 216 204 212 58 164 147 137 139 133 129 131 140 149 95 57 125 161 153 177 180 170 158 150 146 146 148 147 143 145
332 331 328 324 324 323 321 321 320 320 319 317 315 313 311 311 308 306 307 308 310 314 314 315 317 320 317 313 342 265 57 166 314 304 331 124 151 158 146 144 148 132 114 126 129 127 109 127 138 136 128 118 204 189 255 200 180 242 269 228 216 208 134 155 143 145 135 140 139 146 111 103 122 102 132 84 60 120 124 140 140 145 144 141 140 142 145 149
331 328 326 325 322 322 320 319 319 317 317 316 314 312 311 309 307 305 303 304 305 310 311 313 315 318 320 322 6 263 121 272 310 259 2 133 144 150 138 134 129 130 125 116 128 143 148 142 148 161 124 117 246 207 248 268 198 223 257 190 225 185 148 151 152 146 141 146 144 102 129 80 134 133 176 66 352 110 124 122 129 131 133 141 144 150 148 150
329 327 326 324 322 321 321 320 319 317 315 315 315 312 310 307 305 303 301 304 307 308 311 312 315 311 316 16 303 329 56 249 254 291 286 126 133 141 121 102 128 130 139 157 151 157 145 150 171 137 113 158 218 178 262 205 211 212 252 232 217 125 135 140 149 144 135 109 107 121 105 107 117 122 95 36 65 122 119 122 127 134 136 143 146 152 149 148
328 327 326 324 323 322 321 320 318 317 316 317 314 314 309 305 301 299 302 304 306 306 307 311 310 315 329 17 169 321 269 237 230 337 105 120 127 121 125 115 144 140 150 138 158 151 143 204 137 162 193 184 212 247 241 135 298 204 223 112 133 126 133 127 141 140 124 113 129 108 102 63 86 106 42 27 64 131 125 127 134 139 143 153 157 155 155 152
330 327 326 325 323 322 321 321 319 317 315 313 312 309 307 302 299 298 300 303 302 306 303 304 306 305 356 53 306 241 261 229 10 59 113 126 120 125 92 125 143 133 129 172 130 151 187 194 156 155 108 199 101 225 153 134 243 175 160 162 138 136 118 135 133 134 127 115 154 121 113 98 36 99 172 29 124 136 130 136 140 147 153 156 161 158 160 154
330 328 326 326 324 323 320 320 319 316 316 313 312 311 306 302 299 298 301 304 303 300 301 294 247 162 82 115 132 228 264 63 346 92 122 133 129 144 159 155 150 138 132 138 176 165 167 143 183 103 359 208 24 282 164 226 202 269 150 103 107 100 85 106 110 117 115 113 38 110 88 84 27 33 345 133 147 144 137 144 148 152 157 160 160 159 159 159
330 328 327 326 325 323 322 321 320 319 317 317 313 309 304 301 299 300 301 302 301 302 312 325 190 180 53 86 206 222 308 97 41 82 121 130 109 96 62 154 161 153 144 161 200 205 165 156 77 117 181 58 232 303 276 259 277 251 135 114 113 93 110 220 147 162 153 105 135 115 82 54 32 174 93 90 148 148 141 148 153 156 160 160 159 154 161 161
330 327 326 326 325 325 323 323 321 320 320 317 313 307 304 301 300 298 297 298 287 284 272 187 141 3 117 352 232 235 281 297 36 94 121 104 98 62 97 108 39 39 121 150 174 200 212 79 69 71 250 69 260 199 292 339 272 115 115 125 117 115 138 224 97 110 68 146 171 167 173 200 204 145 123 84 151 147 140 152 158 158 161 161 156 159 159 160
329 327 327 326 326 325 324 323 321 321 318 315 311 308 303 297 296 295 292 285 283 279 249 188 103 108 265 239 272 230 241 184 140 120 171 179 103 77 78 89 81 56 21 85 166 166 177 280 42 245 200 157 275 307 347 337 19 106 102 73 131 139 177 174 180 157 147 154 180 2 185 196 182 163 154 9 160 154 155 158 161 162 163 164 159 158 164 171
328 327 326 327 327 326 326 323 323 319 317 315 316 310 301 296 288 284 285 277 269 246 159 107 43 107 22 269 261 276 248 133 154 206 178 152 144 84 132 102 119 99 40 4 54 138 156 126 17 5 286 267 258 341 313 22 355 129 121 196 345 142 133 189 214 182 168 164 134 340 61 224 196 180 176 129 173 158 155 161 164 166 167 167 161 161 167 174
327 327 325 327 327 326 326 324 322 319 318 320 318 312 300 284 277 271 220 236 66 141 127 74 209 193 83 306 258 339 40 157 285 197 188 156 168 165 150 113 113 83 80 316 287 344 99 131 162 198 279 356 85 88 27 64 1 359 101 211 153 99 148 152 189 212 158 135 181 181 197 63 291 173 172 164 174 168 154 162 167 170 172 168 167 166 167 167
325 324 327 327 327 327 326 322 322 321 321 320 317 309 296 280 274 183 182 144 60 73 67 73 145 187 7 237 283 16 25 262 208 61 171 197 149 129 111 103 98 86 112 301 306 102 290 147 279 86 349 198 150 101 82 21 340 229 36 145 176 138 148 180 145 122 164 151 190 223 149 209 160 163 181 190 178 164 160 166 171 173 175 174 169 171 173 175
329 326 326 327 326 328 326 320 321 325 324 320 313 289 276 302 33 102 62 72 92 68 329 216 254 346 284 317 347 246 266 298 326 62 83 83 116 124 107 119 101 119 109 66 80 127 167 155 35 204 343 77 117 105 132 207 183 193 198 86 90 80 182 148 158 164 159 201 180 188 163 179 168 168 190 186 181 171 170 172 172 174 175 176 175 178 179 178
328 328 323 324 325 327 327 325 324 328 329 322 309 192 198 181 110 332 102 160 88 344 6 269 130 7 162 223 299 308 271 212 278 140 166 130 158 106 86 90 121 126 142 125 266 131 357 106 41 71 241 165 194 165 169 208 169 187 174 169 153 158 201 182 146 150 161 179 184 179 176 174 168 177 183 178 184 179 175 155 172 176 178 177 179 183 183 185
326 322 322 321 321 326 328 326 324 326 353 340 11 81 99 10 2 330 42 346 210 214 246 231 193 324 311 284 276 254 273 72 188 260 127 158 121 116 138 111 70 65 127 167 141 192 132 171 198 201 212 215 211 184 178 171 149 111 79 113 189 187 98 135 153 154 159 146 195 184 125 156 179 184 191 180 174 172 164 170 183 187 182 182 182 186 187 188
321 323 322 320 319 320 325 324 318 328 352 319 302 117 17 56 18 319 293 234 218 233 237 240 186 204 238 295 291 355 22 323 48 93 199 118 108 119 241 73 57 98 157 148 133 227 91 180 235 209 195 184 209 157 108 104 60 117 101 95 15 160 221 247 122 157 162 154 172 155 132 167 186 181 189 161 178 186 187 186 188 189 188 187 183 186 187 192
324 321 322 321 321 321 319 318 321 330 70 177 201 124 215 209 211 218 100 323 303 222 221 246 326 274 277 258 224 163 95 11 279 312 315 141 161 121 256 107 138 154 176 115 78 93 170 212 225 194 195 141 102 142 129 135 101 53 127 143 82 267 168 351 91 99 13 50 354 347 160 179 183 192 179 192 199 198 190 189 187 184 191 192 189 187 179 175
325 321 321 324 324 323 324 321 337 138 160 181 352 112 210 253 299 285 58 254 282 258 183 214 227 251 285 257 241 132 130 180 175 289 174 130 125 178 147 103 125 150 63 83 142 116 193 277 230 213 132 135 76 99 103 65 66 105 72 76 208 248 136 25 32 116 140 129 160 185 211 214 164 104 216 210 199 182 194 197 195 208 212 203 197 184 176 179
322 323 322 324 325 324 320 333 112 139 196 212 238 212 170 221 230 61 121 239 305 309 204 212 177 197 246 91 195 127 141 224 114 243 193 130 150 188 103 144 112 104 162 118 134 150 196 202 67 141 150 156 158 159 121 119 123 318 155 140 177 207 212 154 185 80 101 65 143 143 162 222 173 149 220 259 179 187 191 184 228 245 240 248 206 207 180 178
323 324 325 325 326 326 327 330 129 237 248 175 246 249 249 243 225 169 88 349 18 295 258 53 170 235 240 333 90 214 239 89 198 200 169 116 120 93 228 194 106 193 156 150 103 138 276 266 143 90 101 110 135 159 181 131 145 318 238 191 185 151 126 93 109 116 72 146 249 155 110 239 169 151 209 184 199 174 192 189 209 214 219 225 206 204 194 191
325 323 326 329 328 328 315 83 306 0 345 288 215 141 248 307 186 141 98 72 3 270 343 301 283 20 182 328 79 218 64 341 220 220 152 198 151 136 96 67 120 203 133 137 165 189 207 258 144 168 149 127 124 169 226 153 168 131 267 186 160 149 138 138 144 109 143 184 204 223 154 252 168 192 216 193 194 186 182 200 201 208 213 220 220 204 198 191
327 325 325 330 334 333 335 311 279 280 9 305 15 314 299 331 125 120 43 358 36 300 324 257 33 293 243 293 136 60 56 266 305 19 110 217 157 12 117 245 27 49 156 145 55 276 164 46 95 82 120 138 124 232 245 145 125 215 247 117 143 141 154 167 157 144 168 73 58 345 120 154 318 229 195 188 191 191 192 196 192 200 208 213 214 211 201 195
326 325 323 326 339 7 224 330 341 334 222 227 325 322 325 288 116 42 81 70 324 295 326 309 219 274 76 316 65 128 206 244 40 262 349 280 105 360 91 208 163 181 166 92 174 262 167 205 151 124 125 166 212 192 195 153 144 216 172 137 151 172 180 155 134 121 146 122 171 236 292 52 255 277 165 165 192 207 212 198 196 197 204 209 203 205 200 196
324 322 322 325 334 33 212 242 106 244 235 292 310 320 316 66 93 97 113 89 260 251 222 43 269 26 331 353 37 23 347 1 106 261 304 63 35 143 55 213 155 157 13 142 193 280 302 186 202 173 160 219 219 201 162 160 179 267 179 124 113 69 72 132 125 113 160 87 206 197 199 161 285 212 154 177 206 218 213 202 199 200 200 200 199 198 191 191
322 324 321 320 317 99 40 12 229 240 332 309 307 311 29 56 37 39 26 330 36 313 217 246 29 261 60 94 300 0 129 303 157 341 36 147 336 31 30 149 123 110 178 7 154 216 240 302 158 120 184 205 204 207 168 172 196 166 119 79 51 69 92 61 63 80 68 262 244 181 198 160 291 220 182 176 219 223 185 194 193 196 201 200 200 190 179 176
320 315 310 305 208 226 147 296 252 227 251 311 303 19 74 42 102 101 72 261 19 266 359 351 271 7 105 103 265 304 146 293 341 91 30 18 9 43 4 36 44 46 49 6 289 318 327 318 153 240 183 201 168 190 221 197 197 189 175 126 84 27 34 49 1 27 153 261 269 175 182 172 203 300 223 211 1 158 184 195 188 189 194 195 194 187 165 147
316 310 280 192 234 346 167 258 179 246 314 301 26 60 81 279 12 72 263 320 22 310 56 292 287 66 84 79 96 308 174 6 349 74 134 100 128 179 337 150 204 65 324 309 251 0 297 239 225 247 220 176 132 156 336 195 259 129 92 80 120 179 43 9 44 211 211 218 283 162 114 31 257 219 259 284 270 285 195 194 194 188 189 190 190 182 162 159
315 312 268 222 208 236 243 269 352 334 340 11 71 51 57 94 43 287 295 327 270 161 295 176 287 12 316 70 319 300 294 111 307 66 120 31 95 1 228 110 183 150 210 261 249 20 275 273 212 229 291 181 133 151 210 79 203 130 151 160 112 105 98 139 251 288 317 286 217 146 158 194 271 301 252 274 270 240 233 208 192 186 186 186 185 176 166 167
311 315 297 199 197 221 253 308 317 9 8 36 74 33 54 53 279 288 277 235 247 339 342 346 335 12 41 120 301 202 65 345 117 324 67 64 50 60 319 342 88 33 90 182 224 187 45 297 267 152 231 189 162 164 171 174 158 193 140 158 185 141 149 169 183 171 204 207 299 159 131 234 157 237 316 287 271 247 222 208 191 186 181 180 175 166 162 162
310 304 173 128 233 248 244 251 269 341 71 55 46 80 87 239 241 257 285 300 290 319 173 353 60 47 353 3 322 353 136 33 7 69 29 77 355 102 210 324 344 111 135 110 257 72 201 207 257 215 134 140 175 200 162 118 111 200 162 95 116 217 144 147 201 173 182 129 74 192 200 235 146 296 301 326 344 30 182 175 159 172 166 162 163 164 161 169
322 79 139 230 223 262 191 202 170 138 80 45 74 47 76 193 341 159 258 192 304 9 309 356 45 49 327 326 323 21 350 108 345 76 357 63 155 45 233 230 30 30 107 178 213 184 16 290 274 311 132 170 202 148 217 143 185 213 119 182 212 172 115 90 57 6 84 61 190 117 337 306 292 322 14 351 28 19 64 127 153 161 164 162 169 166 160 172
16 316 58 303 271 217 158 155 147 104 62 84 84 70 207 282 206 186 271 297 273 329 57 79 343 67 343 350 299 345 325 41 16 86 5 0 360 353 341 303 221 5 163 139 308 173 141 252 297 49 38 252 184 179 169 233 145 103 149 226 140 118 112 127 168 351 58 168 224 69 224 287 65 250 340 23 45 39 40 54 117 134 143 153 143 144 154 171
340 359 241 305 265 105 150 167 113 50 79 76 59 153 221 29 190 191 249 348 344 28 77 92 324 117 286 91 1 347 321 91 307 51 117 19 142 281 314 306 301 332 307 222 133 297 110 337 296 264 227 271 346 121 42 73 94 149 193 173 138 224 219 319 104 87 107 282 244 301 206 246 180 240 279 343 47 75 86 98 103 115 116 105 96 92 95 116
264 48 27 305 348 158 177 143 67 70 58 57 335 48 275 240 263 13 279 135 100 108 65 301 140 352 126 79 238 303 360 81 344 78 83 349 64 45 28 25 291 316 359 132 62 275 27 169 295 292 224 310 18 64 181 284 339 47 74 104 313 113 146 144 202 168 117 159 91 285 59 236 206 200 162 173 113 108 110 106 108 99 100 103 105 106 107 103
30 39 357 320 342 96 90 50 59 45 65 54 236 227 230 276 290 291 336 174 341 74 251 82 14 33 19 265 125 66 15 70 81 316 97 313 138 322 12 329 251 307 19 29 117 186 236 53 275 285 320 48 18 348 182 153 148 345 65 43 105 16 221 106 48 92 156 158 180 157 241 265 262 216 167 156 128 103 101 93 90 100 101 100 105 111 109 106
26 97 269 305 25 58 36 39 47 49 83 251 195 249 332 280 345 307 348 23 114 275 146 167 153 48 261 28 8 19 73 28 29 65 110 53 85 345 331 1 302 317 9 33 44 2 45 12 175 309 11 19 242 249 196 180 175 173 148 173 167 126 130 138 226 60 75 113 173 144 227 275 274 154 178 150 134 119 118 113 107 98 92 86 91 106 115 112
75 37 286 338 1 33 71 51 14 219 96 91 335 175 339 10 30 320 347 344 64 45 34 106 194 121 108 73 191 10 100 42 1 83 9 116 336 138 298 352 280 258 67 60 289 270 140 176 82 43 107 130 164 331 259 236 165 158 127 128 153 147 109 99 150 234 59 42 86 124 108 284 262 109 101 194 139 134 133 123 106 92 95 101 104 108 109 109
62 196 251 357 337 103 68 61 278 35 287 227 273 285 273 23 132 273 39 354 36 38 30 42 260 67 207 229 277 72 111 72 17 27 202 238 47 341 294 310 303 25 70 356 33 301 184 39 15 312 318 298 306 293 311 133 110 34 7 49 66 125 158 164 176 177 128 157 88 359 79 230 268 128 104 99 55 60 49 48 98 103 103 102 102 103 115 124
167 247 320 317 20 113 73 219 295 299 282 306 58 282 17 153 39 2 20 340 59 348 70 336 359 94 21 65 60 49 313 83 14 73 22 39 55 289 342 6 4 41 49 288 78 306 42 334 91 0 25 337 337 348 1 343 51 71 320 311 330 95 81 137 106 49 103 211 165 132 202 234 206 125 94 99 94 85 74 62 73 92 87 84 86 76 73 82
34 301 255 299 356 69 219 182 148 201 283 34 37 30 336 17 30 167 102 4 341 39 73 358 162 311 27 18 61 47 23 123 119 338 102 318 239 315 347 21 11 57 31 290 263 4 74 326 71 98 148 104 17 0 333 324 311 298 292 340 341 120 136 100 118 14 106 212 110 116 228 259 147 129 135 128 106 87 78 82 75 71 82 87 85 78 61 66
18 146 309 338 10 25 69 36 99 136 152 144 47 293 88 37 326 344 92 82 81 15 98 255 347 65 39 36 35 19 8 21 87 292 52 344 315 321 332 339 39 15 345 38 31 96 111 69 65 106 127 164 217 230 265 268 344 26 317 353 329 6 86 98 99 97 175 176 178 227 169 152 164 165 165 155 127 126 116 106 106 101 95 83 75 63 59 66
159 79 2 337 337 41 142 22 38 43 199 145 92 277 10 328 257 343 16 99 12 42 33 47 349 44 341 68 50 51 355 0 4 75 5 320 268 259 308 323 4 10 346 11 2 85 61 75 24 87 72 171 265 248 279 296 329 347 1 340 343 353 90 94 130 212 166 106 260 251 174 157 183 171 170 152 136 121 116 117 117 116 120 116 107 98 82 74
67 260 106 185 126 299 29 318 25 350 342 81 108 69 1 27 21 65 328 54 347 23 98 344 25 30 291 145 124 79 332 18 21 36 321 238 344 336 15 350 51 337 6 25 350 89 121 103 254 60 25 342 16 3 8 25 68 109 23 10 1 340 49 104 148 168 125 138 193 200 173 177 161 162 160 147 146 145 142 134 123 123 115 112 105 89 69 66
110 191 164 277 115 255 170 281 336 214 35 93 90 67 30 68 62 18 162 322 18 350 68 104 345 336 0 44 100 108 17 70 342 321 135 322 51 341 14 341 337 17 29 31 21 73 86 13 165 195 133 74 4 338 5 37 341 2 27 11 3 11 43 68 72 24 79 144 208 140 133 89 137 142 144 141 131 125 114 106 119 125 124 118 110 104 94 80
356 44 304 4 86 174 269 359 31 70 78 351 93 303 124 74 35 337 17 81 39 333 31 85 60 37 41 45 73 87 74 148 137 64 248 139 352 80 113 184 272 328 32 30 359 339 104 287 330 324 112 179 174 330 345 7 18 358 3 12 12 1 44 56 78 58 61 53 78 109 109 103 94 128 119 117 114 111 120 129 129 124 132 134 127 120 112 95
251 162 142 67 22 308 351 21 53 86 76 359 78 215 76 284 89 150 39 196 178 214 105 153 164 97 16 62 53 85 216 181 198 237 239 151 99 226 107 309 153 332 353 7 13 326 52 191 31 43 107 281 337 22 356 350 347 40 12 6 1 356 14 353 33 332 102 141 104 91 111 154 151 121 121 123 129 133 135 135 135 140 137 132 125 120 112 98
41 281 64 107 107 341 28 341 17 60 30 219 147 251 144 242 200 110 49 355 53 53 180 154 189 106 12 52 22 281 237 196 221 246 231 205 142 72 57 135 143 74 72 59 287 44 55 111 64 75 116 215 297 34 42 14 2 7 1 349 330 294 328 17 37 26 39 130 136 156 212 145 139 131 123 132 131 137 142 149 142 139 140 132 124 112 105 100